APRIZESAT 8

Last updated on July 6, 2021, 3:44 p.m. UTC

1 39425U 13066K   21186.87637174  .00000126  00000-0  22132-4 0  9993
2 39425  97.5819 170.8870 0053364  96.0935 264.6362 14.81289422411655
UTC
Height (km)
Latitude
Longitude
Inclination
Orbital Period
UTC large
Height (km)
Speed (km/s)
/
Latitude / Longitude
Inclination (degrees)
Orbital Period (minutes)
Azimuth
Elevation
Range (km)
Doppler Factor
iOS Compass Heading
iOS Angle